Terminal Aerodrome Forecast
Issued by NWS Buffalo, NY

Home | Current Version | Previous Version | Text Only | Print | Product List | Glossary On
Versions: 1 2 3 4 5 6 7 8 9 10 11 12 13 14 15 16 17 18 19 20 21 22 23 24 25 26
000
FTUS41 KBUF 050903 AAA
TAFART
TAF AMD
KART 050903Z 0509/0606 VRB04KT P6SM SCT060
     FM051300 23004KT P6SM SKC
     FM051600 25008KT P6SM SKC
     FM060000 21004KT P6SM SKC
     FM060100 VRB03KT P6SM SKC=

USA.gov is the U.S. government's official web portal to all federal, state and local government web resources and services.